Le nostre stazioni meteo in Italia

Pubblicità
Il mio iltempo24.it
Treviso/Istrana, Italia (16098): Temperatura & dewpoint: 13.06.2019 01:00:00 - 19.06.2019 01:00:00 (CEST)Treviso/Istrana, Italia (16098): velocità del vento: 13.06.2019 01:00:00 - 19.06.2019 01:00:00 (CEST)Treviso/Istrana, Italia (16098): direzione del vento: 13.06.2019 01:00:00 - 19.06.2019 01:00:00 (CEST)Treviso/Istrana, Italia (16098): reduced air pressure: 13.06.2019 01:00:00 - 19.06.2019 01:00:00 (CEST)Treviso/Istrana, Italia (16098): visibility: 13.06.2019 01:00:00 - 19.06.2019 01:00:00 (CEST)
Data & Tempo tt [°C] td [°C] ff [km/h] ff [kn] dd ppp [hPa] vv [km]
19.06.2019 01:00:00 23,4 20,5 5 3 NE 1014,0 15
19.06.2019 00:00:00 23,4 20,7 13 7 NE 1014,4 15
18.06.2019 23:00:00 24,6 21,9 9 5 NE 1014,2 15
18.06.2019 22:00:00 27,2 22,2 5 3 SE 1013,8 15
18.06.2019 21:00:00 29,4 21,9 8 4 SSE 1013,0 15
18.06.2019 20:00:00 31,0 20,9 9 5 S 1012,3 15
18.06.2019 19:00:00 31,0 20,0 13 7 SO 1012,5 15
18.06.2019 18:00:00 32,0 20,9 8 4 SSO 1012,8 15
18.06.2019 17:00:00 32,6 21,5 8 4 SO 1013,4 15
18.06.2019 16:00:00 32,0 20,9 15 8 S 1013,9 15
18.06.2019 15:00:00 31,6 19,3 11 6 SSO 1014,3 15
18.06.2019 14:00:00 32,0 19,3 9 5 SO 1014,6 20
18.06.2019 13:00:00 31,2 19,5 13 7 SSE 1016,0 25
18.06.2019 12:00:00 31,4 20,7 13 7 SE 1015,0 25
18.06.2019 11:00:00 29,0 20,5 5 3 E 1015,5 25
18.06.2019 10:00:00 28,0 20,3 4 2 SE 1015,4 30
18.06.2019 09:00:00 26,6 20,2 4 2 E 1015,8 30
18.06.2019 08:00:00 25,4 20,7 8 4 E 1015,3 30
18.06.2019 07:00:00 22,8 20,2 8 4 NNE 1015,3 20
18.06.2019 06:00:00 21,8 19,9 8 4 N 1015,2 20
18.06.2019 05:00:00 22,4 20,5 8 4 N 1015,3 20
18.06.2019 04:00:00 22,8 20,2 5 3 N 1015,2 20
18.06.2019 03:00:00 23,0 20,0 8 4 N 1015,5 20
18.06.2019 02:00:00 23,4 20,0 8 4 NNE 1015,9 20
18.06.2019 01:00:00 24,2 20,3 5 3 NE 1016,1 20
18.06.2019 00:00:00 24,4 19,5 9 5 NE 1016,1 20
17.06.2019 23:00:00 25,4 20,2 9 5 E 1015,5 20
17.06.2019 22:00:00 26,2 20,5 5 3 NE 1015,0 20
17.06.2019 21:00:00 28,4 20,2 5 3 E 1014,6 15
17.06.2019 20:00:00 29,4 19,1 8 4 S 1014,4 15
17.06.2019 19:00:00 30,6 19,3 13 7 S 1014,6 15
17.06.2019 18:00:00 30,8 19,5 18 10 SE 1014,6 20
17.06.2019 17:00:00 31,4 18,0 13 7 ENE 1014,6 25
17.06.2019 16:00:00 31,2 17,5 15 8 ENE 1014,8 25
17.06.2019 15:00:00 30,8 17,9 9 5 NE 1015,4 30
17.06.2019 14:00:00 30,6 17,3 15 8 E 1015,6 30
17.06.2019 13:00:00 31,0 17,0 15 8 ESE 1016,0 30
17.06.2019 12:00:00 30,0 16,8 15 8 ENE 1016,3 30
17.06.2019 11:00:00 28,8 17,7 5 3 E 1016,5 30
17.06.2019 10:00:00 26,8 17,6 9 5 ENE 1016,7 30
17.06.2019 09:00:00 26,6 17,9 13 7 ENE 1016,7 30
17.06.2019 08:00:00 25,0 18,4 15 8 NE 1015,8 30
17.06.2019 07:00:00 23,6 17,8 15 8 NE 1015,4 30
17.06.2019 06:00:00 22,0 17,6 13 7 ENE 1014,9 25
17.06.2019 05:00:00 22,4 18,2 9 5 ENE 1014,6 15
17.06.2019 04:00:00 22,8 19,4 11 6 NE 1013,8 10
17.06.2019 03:00:00 23,4 20,2 15 8 NE 1014,3 10
17.06.2019 02:00:00 24,4 21,5 11 6 ENE 1013,9 10
17.06.2019 01:00:00 24,8 23,6 15 8 ENE 1013,9 10
17.06.2019 00:00:00 24,0 23,0 16 9 E 1013,4 10
16.06.2019 23:00:00 24,2 23,0 8 4 ENE 1012,6 10
16.06.2019 22:00:00 26,6 23,7 5 3 E 1012,1 12
16.06.2019 21:00:00 28,6 23,3 0 0 N 1011,2 12
16.06.2019 20:00:00 31,4 21,9 5 3 ONO 1011,2 18
16.06.2019 19:00:00 31,8 21,0 9 5 NO 1011,3 18
16.06.2019 18:00:00 31,4 21,9 8 4 NNE 1011,3 18
16.06.2019 17:00:00 32,2 20,8 8 4 NNO 1011,4 18
16.06.2019 16:00:00 32,8 20,3 5 3 O 1011,5 16
16.06.2019 15:00:00 32,8 21,3 8 4 SSO 1011,8 16
16.06.2019 14:00:00 31,6 20,9 5 3 ENE 1012,3 16
16.06.2019 13:00:00 31,2 22,2 9 5 SSE 1012,3 16
16.06.2019 12:00:00 29,8 21,7 9 5 NE 1012,5 16
16.06.2019 11:00:00 27,6 20,4 9 5 SE 1012,5 18
16.06.2019 10:00:00 26,8 20,4 9 5 ENE 1012,5 16
16.06.2019 09:00:00 25,4 20,7 8 4 NE 1012,7 16
16.06.2019 08:00:00 24,0 20,3 8 4 ENE 1011,8 15
16.06.2019 07:00:00 23,0 21,3 5 3 NE 1011,6 10
16.06.2019 06:00:00 22,4 20,7 0 0 N 1011,2 8
16.06.2019 05:00:00 22,2 20,5 5 3 ENE 1011,1 8
16.06.2019 04:00:00 22,2 20,8 9 5 NE 1011,3 10
16.06.2019 03:00:00 22,4 20,7 8 4 NE 1011,2 10
16.06.2019 02:00:00 22,8 21,1 8 4 NNE 1011,1 10
16.06.2019 01:00:00 25,0 22,1 5 3 ENE 1010,4 10
16.06.2019 00:00:00 25,2 23,1 0 0 N 1010,4 10
15.06.2019 23:00:00 27,4 24,5 5 3 O 1010,3 10
15.06.2019 22:00:00 28,4 25,4 4 2 S 1010,3 10
15.06.2019 21:00:00 29,4 26,0 4 2 SE 1010,3 10
15.06.2019 20:00:00 32,2 25,8 9 5 S 1010,6 10
15.06.2019 19:00:00 33,6 25,0 11 6 SSE 1010,9 12
15.06.2019 18:00:00 33,6 22,4 5 3 SSO 1011,3 15
15.06.2019 17:00:00 33,6 20,0 8 4 SO 1011,6 20
15.06.2019 16:00:00 33,2 20,7 11 6 ESE 1012,1 20
15.06.2019 15:00:00 33,8 21,6 15 8 SSE 1012,3 20
15.06.2019 14:00:00 33,2 20,7 15 8 SE 1012,6 20
15.06.2019 13:00:00 32,0 20,6 16 9 ESE 1013,0 25
15.06.2019 12:00:00 31,6 19,9 11 6 E 1013,0 25
15.06.2019 11:00:00 30,2 19,3 13 7 ENE 1013,3 25
15.06.2019 10:00:00 29,6 18,4 13 7 E 1013,5 25
15.06.2019 09:00:00 27,6 18,9 11 6 E 1013,3 25
15.06.2019 08:00:00 24,0 19,7 9 5 NNE 1014,1 15
15.06.2019 07:00:00 23,0 18,5 8 4 E 1013,6 15
15.06.2019 06:00:00 23,0 17,2 0 0 N 1013,6 15
15.06.2019 05:00:00 23,0 19,4 15 8 NE 1013,4 15
15.06.2019 04:00:00 25,0 18,0 8 4 E 1014,1 15
15.06.2019 03:00:00 24,8 17,8 8 4 ENE 1014,0 15
15.06.2019 02:00:00 23,0 20,0 5 3 NO 1014,6 15
15.06.2019 01:00:00 23,0 19,4 8 4 ENE 1014,6 15
15.06.2019 00:00:00 22,4 19,2 8 4 ENE 1015,4 15
14.06.2019 23:00:00 24,0 18,2 8 4 N 1015,9 15
14.06.2019 22:00:00 25,0 16,7 5 3 N 1015,9 15
14.06.2019 21:00:00 27,4 16,1 5 3 O 1015,9 15
14.06.2019 20:00:00 28,4 16,4 5 3 SSE 1015,3 25
14.06.2019 19:00:00 30,0 17,8 8 4 SSE 1016,2 25
14.06.2019 18:00:00 31,4 19,1 11 6 ESE 1016,4 25
14.06.2019 17:00:00 32,0 20,0 15 8 SSE 1016,6 25
14.06.2019 16:00:00 31,4 17,7 11 6 E 1016,6 25
14.06.2019 15:00:00 31,0 18,7 11 6 E 1017,1 25
14.06.2019 14:00:00 30,2 18,0 5 3 ESE 1017,7 25
14.06.2019 13:00:00 29,4 17,3 9 5 ESE 1018,3 25
14.06.2019 12:00:00 28,4 18,2 9 5 E 1018,6 20
14.06.2019 11:00:00 27,4 20,0 11 6 E 1018,6 20
14.06.2019 10:00:00 25,2 17,9 5 3 E 1018,4 20
14.06.2019 09:00:00 24,0 18,2 13 7 ENE 1018,6 20
14.06.2019 08:00:00 22,4 18,0 13 7 ENE 1017,9 30
14.06.2019 07:00:00 20,0 17,4 11 6 NE 1017,8 30
14.06.2019 06:00:00 19,2 17,0 8 4 ENE 1017,6 25
14.06.2019 05:00:00 18,8 15,9 9 5 NE 1016,9 20
14.06.2019 04:00:00 19,0 17,1 9 5 NE 1016,7 25
14.06.2019 03:00:00 19,2 15,9 9 5 NNE 1016,9 25
14.06.2019 02:00:00 19,8 17,4 5 3 NE 1017,2 25
14.06.2019 01:00:00 20,8 18,0 4 2 N 1017,0 25
14.06.2019 00:00:00 22,4 18,6 2 1 NO 1016,9 25
13.06.2019 23:00:00 23,2 18,7 8 4 NE 1016,6 25
13.06.2019 22:00:00 25,2 15,5 9 5 SSE 1016,0 20
13.06.2019 21:00:00 27,6 10,8 5 3 OSO 1015,4 20
13.06.2019 20:00:00 29,0 9,7 13 7 SO 1014,5 20
13.06.2019 19:00:00 30,0 9,5 15 8 SO 1014,2 30
13.06.2019 18:00:00 31,0 8,7 22 12 OSO 1013,9 30
13.06.2019 17:00:00 31,0 9,3 21 11 SSO 1013,8 30
13.06.2019 16:00:00 31,0 7,5 15 8 OSO 1013,9 30
13.06.2019 15:00:00 31,0 6,8 21 11 SO 1013,9 25
13.06.2019 14:00:00 30,0 14,1 15 8 SO 1013,9 13
13.06.2019 13:00:00 30,0 16,8 8 4 S 1014,0 10
13.06.2019 12:00:00 28,0 22,0 5 3 S 1014,0 10
13.06.2019 11:00:00 27,4 22,4 0 0 N 1013,9 10
13.06.2019 10:00:00 26,0 22,3 5 3 S 1013,7 10
13.06.2019 09:00:00 25,0 21,9 4 2 ESE 1013,3 10
13.06.2019 08:00:00 23,0 21,5 4 2 ONO 1012,6 8
13.06.2019 07:00:00 22,4 20,9 4 2 NNO 1012,3 8
13.06.2019 06:00:00 21,2 19,7 9 5 N 1011,9 6
13.06.2019 05:00:00 21,6 20,1 5 3 N 1011,0 6
13.06.2019 04:00:00 22,4 20,9 4 2 N 1011,1 8
13.06.2019 03:00:00 22,6 21,1 5 3 NE 1011,2 8
13.06.2019 02:00:00 22,6 21,2 5 3 NNE 1011,6 8
13.06.2019 01:00:00 22,8 21,8 8 4 NE 1011,6 8

tt = Temperatura
td = dewpoint
ff = velocità del vento
dd = direzione del vento
ppp = reduced air pressure
vv = visibility

Stazioni seguenti

WeatherPro
AMSI
MeteoEarth